Regional Weather Roundup
Issued by NWS

Home | Current Version | Previous Version | Graphics & Text | Print | Product List | Glossary On
Versions: 1 2 3 4 5 6 7 8 9 10 11 12 13 14 15 16 17 18 19 20 21 22 23 24 25 26 27 28 29 30 31 32 33 34 35 36 37 38 39 40 41 42 43 44 45 46 47 48 49 50
000
ASUS45 KBOU 211707
RWRCO

WEATHER ROUNDUP FOR COLORADO
NATIONAL WEATHER SERVICE DENVER/BOULDER CO
1000 AM MST SUN DEC 21 2014

NOTE: "FAIR" INDICATES FEW OR NO CLOUDS BELOW 12000 FEET WITH NO
SIGNIFICANT WEATHER AND/OR OBSTRUCTIONS TO VISIBILITY.

COZ001>005-013-030-031-211800-
...NORTHWEST COLORADO...

CITY           SKY/WX    TMP DP  RH WIND       PRES   REMARKS
CRAIG          CLOUDY    34  28  79 W15       29.86F WCI  24
HAYDEN         CLOUDY    28  27  93 CALM      29.86F VSB 3/4
MEEKER         LGT SNOW  32  28  85 SW6       29.92F FOG     WCI  26
MOUNT WERNER   NOT AVBL
STEAMBOAT SPGS CLOUDY    29  28  94 E5        29.86S VSB 1/2 WCI  24
WALDEN         CLOUDY    30  27  86 S13       29.79F WCI  20
$$

COZ006>008-011-211800-
...WEST CENTRAL VALLEYS...

CITY           SKY/WX    TMP DP  RH WIND       PRES   REMARKS
GRAND JUNCTION SNOW      32  32 100 CALM      30.03F VSB 1/2
MONTROSE       LGT SNOW  30  29  96 SW3       30.07R VSB 3/4
EAGLE          LGT SNOW  30  28  93 CALM      29.96S FOG
RIFLE          SNOW      31  29  92 CALM      29.99F VSB 1/2
DELTA          LGT SNOW  33  32  96 CALM      30.06F VSB 1
NUCLA          FLURRIES  32  28  86 CALM      30.12S
$$

COZ017>023-064>068-211800-
...SOUTHWEST COLORADO...

CITY           SKY/WX    TMP DP  RH WIND       PRES   REMARKS
DURANGO        CLOUDY    28  26  92 E7        30.06R WCI  21
CORTEZ         MOSUNNY   36  29  75 N5        30.10R
PAGOSA SPRINGS CLOUDY    29  26  86 CALM      30.03R
TELLURIDE      LGT SNOW  29  24  82 W5        30.09R WCI  24
WOLF CREEK PAS PTSUNNY   18  18 100 MISG      29.99R
$$

COZ009-010-012-014-032>034-037-058>063-211800-
...CENTRAL COLORADO...

CITY           SKY/WX    TMP DP  RH WIND       PRES   REMARKS
ASPEN          LGT SNOW  25  23  92 CALM      29.93F VSB 1
BUENA VISTA    CLOUDY    35  19  51 W23G30    29.88R WCI  24
COPPER MTN     CLOUDY    21  16  79 W20       29.87F WCI   6
BERTHOUD PASS  CLOUDY    14  10  85 MISG      29.76F
COTTONWOOD PAS LGT SNOW  32  19  59 NW20G36   29.87R WCI  20
GUNNISON       CLOUDY    25  19  80 N7        30.02R VSB 3/4 WCI  17
KREMMLING      LGT SNOW  30  27  86 W10       29.85F WCI  21
LEADVILLE      LGT SNOW  23  19  85 N9        29.88R VSB 3/4 WCI  13
MONARCH PASS   CLOUDY    18  14  86 MISG      30.03R
SALIDA         PTSUNNY   40  19  41 W29G39    29.93R
SUNLIGHT       HVY SNOW N/A N/A N/A SW3       29.93F VSB<1/4
WILKERSON PASS CLOUDY    23  14  68 MISG      29.82R
$$

COZ069>075-211800-
...SAN LUIS VALLEY/SANGRE DE CRISTO MOUNTAINS...

CITY           SKY/WX    TMP DP  RH WIND       PRES   REMARKS
ALAMOSA        PTSUNNY   26  19  74 SE5       29.94F WCI  20
LA VETA PASS   SUNNY     27  18  69 S25G41    29.77F WCI  11
SAGUACHE       PTSUNNY   28  18  64 SE9       29.96R WCI  20
$$

COZ035-036-038>040-211800-
...NORTHERN COLORADO FRONT RANGE...

CITY           SKY/WX    TMP DP  RH WIND       PRES   REMARKS
DENVER INTL AP PTSUNNY   45  19  35 SW9       29.65F
DMNS CITY PARK   N/A     42  19  39 SE5       29.65F
AURORA         PTSUNNY   44  19  35 S8        29.68R
FRONT RANGE AP PTSUNNY   46  21  36 SW8       29.67R
ERIE MUNI ARPT   N/A     40  25  56 CALM      29.63F
BOULDER MUN AP CLOUDY    43  21  42 SW13G18   29.62F
CENTENNIAL     CLOUDY    42  21  43 SE6       29.68R
BROOMFIELD     NOT AVBL
FORT COLLINS   CLOUDY    30  19  64 CALM      29.64F
LONGMONT       CLOUDY    41  24  51 CALM      29.64F
$$

COZ041-046-047-076>085-087-088-211800-
...PIKES PEAK/PALMER DIVIDE AND SOUTHERN FOOTHILLS...

CITY           SKY/WX    TMP DP  RH WIND       PRES   REMARKS
COLO. SPRINGS  PTSUNNY   43  17  35 VRB7      29.73S
A. F. ACADEMY  PTSUNNY   44  14  29 W14G30    29.71F
ELLICOTT       NOT AVBL
FALCON         PTSUNNY   42  14  32 W5        29.74R
FORT CARSON    PTSUNNY   39  18  43 NE3       29.72R
LIMON          MOSUNNY   41  26  55 SE6       29.68F
MONUMENT HILL  PTSUNNY   37  18  44 SW8       29.71R
TRINIDAD       MOSUNNY   47  19  33 W12       29.75F
$$

COZ042>045-048>051-090-091-211800-
...NORTHEAST COLORADO...

CITY           SKY/WX    TMP DP  RH WIND       PRES   REMARKS
GREELEY ARPT   PTSUNNY   30  18  59 CALM      29.63F
AKRON          CLOUDY    39  25  57 S9        29.67S
BURLINGTON     MOSUNNY   45  29  53 SW3       29.69F
WRAY           CLOUDY    37  30  76 W6        29.68S
STERLING       CLOUDY    30  27  86 SW6       29.66F WCI  24
HOLYOKE        SUNNY     37  30  75 SW10      29.67R
FORT MORGAN    PTSUNNY   29  22  75 CALM      29.66F
$$

COZ086-089-092>099-211800-
...SOUTHEAST COLORADO...

CITY           SKY/WX    TMP DP  RH WIND       PRES   REMARKS
PUEBLO         MOSUNNY   37  21  52 CALM      29.70F
LA JUNTA       PTSUNNY   36  26  67 CALM      29.72F
LAMAR          MOSUNNY   39  28  64 MISG      29.72F
SPRINGFIELD      N/A     53  24  32 W14       29.73F
$$



USA.gov is the U.S. government's official web portal to all federal, state and local government web resources and services.